Flag for Germany Weather past 2 weeks in Papenburg, Lower Saxony, Germany

Now
34 °F

Clear.


Feels Like: 34 °F
Forecast: 37 / 55 °F
Wind: 2 mph from West

Location: Emden-Koenigspolder

Current Time: Apr 28, 2015 at 2:46:37 AM

Latest Report: Apr 28, 2015 at 2:00 AM


Visibility: 19 mi

Pressure: 29.87 "Hg

Humidity: 85%

Dew point: 30 °F

Location of PapenburgLocation

Historic Weather in Papenburg — Graph

°F

Papenburg temperature yesterday

Maximum temperature yesterday: 50 °F (at 2:00 PM)
Minimum temperature yesterday: 39 °F (at 10:00 PM)
Average temperature yesterday: 45 °F

Past Weeks' High & Low Weather Summary

 TemperatureHumidityPressure
High65 °F (Apr 15, 3:00 PM)100% (Apr 20, 7:00 AM)30.48 "Hg (Apr 20, 7:00 AM)
Low34 °F (Apr 28, 2:00 AM)44% (Apr 15, 3:00 PM)29.67 "Hg (Apr 25, 7:00 PM)
Average48 °F78%30.11 "Hg
* Reported Apr 13 2:00 AM — Apr 28 2:00 AM, Papenburg, Weather by CustomWeather, © 2015

Note: Actual official high and low records may vary slightly from our data, if they occured in-between our weather recording intervals... More about our weather records

Advertising

Papenburg weather history for previous 24 hours

 ConditionsComfort  
Time TempWeatherWind HumidityBarometerVisibility
2:00 AM
Tue, Apr 28
34 °FClear.2 mph85%29.87 "Hg19 mi
1:00 AM35 °FClear.2 mph82%29.87 "Hg19 mi
12:00 AM35 °FClear.2 mph81%29.87 "Hg22 mi
10:00 PM
Mon, Apr 27
39 °FPassing clouds.2 mph70%29.87 "Hg28 mi
9:00 PM41 °FOvercast.3 mph63%29.86 "Hg37 mi
8:00 PM45 °FOvercast.6 mph56%29.85 "Hg22 mi
7:00 PM46 °FOvercast.7 mph54%29.83 "Hg19 mi
6:00 PM46 °FOvercast.7 mph54%29.83 "Hg15 mi
5:00 PM48 °FScattered clouds.7 mph56%29.83 "Hg12 mi
4:00 PM48 °FScattered clouds.8 mph57%29.83 "Hg9 mi
3:00 PM49 °FPartly sunny.8 mph64%29.82 "Hg13 mi
2:00 PM50 °FPartly sunny.8 mph65%29.80 "Hg12 mi
1:00 PM49 °FOvercast.7 mph67%29.79 "Hg17 mi
12:00 PM49 °FPartly sunny.6 mph56%29.79 "Hg22 mi
10:00 AM48 °FPartly sunny.6 mph55%29.76 "Hg6 mi
9:00 AM47 °FPassing clouds.5 mph71%29.75 "Hg14 mi
8:00 AM43 °FScattered clouds.2 mph80%29.74 "Hg22 mi
7:00 AM40 °FOvercast.3 mph84%29.73 "Hg31 mi
6:00 AM43 °FOvercast.5 mph81%29.73 "Hg31 mi
4:00 AM44 °FOvercast.N/A84%29.71 "Hg31 mi
3:00 AM44 °FOvercast.5 mph84%29.72 "Hg28 mi
2:00 AM44 °FOvercast.3 mph84%29.73 "Hg28 mi
Weather by CustomWeather, © 2015

See weather overviewHow to use our weather pages